Погода в Фульде

Германия     50°32′43″N   9°40′30″E
темп.,
°C
ветер,
м/с
пор.,
м/с
влажн.,
%
обл.,
%
осадки,
мм/ч
давл.,
гПа
погр.,
м
17 апреля, сб
сб1723:000всв018495 0.0 102610
02:000св228886 0.0 102513
05:000ссв228999 0.0 102526
08:00+1ссв247973 0.0 1025204
11:00+4ссв3574100 0.0 1024839
14:00+3ссв3695100 0.4 1023491
17:00+5ссв4683100 0.1 1022791
20:00+3всв1294100 0.1 102261
18 апреля, вс
вс1823:00+2св2296100 0.0 102243
02:00+3ссв1296100 0.1 102241
05:00+2с1198100 0.1 102129
08:00+3св1399100 2.7 1021227
11:00+4св1294100 2.3 1021246
14:00+6с2393100 2.4 1021553
17:00+8св137788 0.1 1019694
20:00+6св2493100 0.7 1020175
19 апреля, пн
пн1923:00+4св1194100 0.2 102110
02:00+4ссв009592 0.3 102010
05:00+4ссз0096100 0.0 101910
08:00+5ссв1195100 0.0 102042
11:00+8ссв128256 0.1 1019604
14:00+10св347270 1.1 10181040
17:00+12всв355571 0.6 10161705
20:00+8всв358499 0.8 1017110
20 апреля, вт
вт2023:00+6всв229148 0.0 101813
02:00+4всв229322 0.0 101811
05:00+3всв11915 0.0 101811
08:00+6св12835 0.0 101788
11:00+11св235648 0.0 10161515
14:00+12св225964 0.5 10161152
17:00+12ссз235952 1.6 10151254
20:00+9с00695 1.9 101510
21 апреля, ср
ср2123:00+6св118044 0.0 101710
02:00+6ссз008274 0.0 101710
05:00+4с11889 0.0 101710
08:00+6ссз128410 0.0 101895
11:00+11с34619 0.0 10191080
14:00+13с3450100 0.0 10181925
17:00+12с4556100 0.0 10181342
20:00+8с368619 0.1 1020142